Regional Weather Roundup
Issued by NWS

Home | Current Version | Previous Version | Text Only | Print | Product List | Glossary Off
Versions: 1 2 3 4 5 6 7 8 9 10 11 12 13 14 15 16 17 18 19 20 21 22 23 24 25 26 27 28 29 30 31 32 33 34 35 36 37 38 39 40 41 42 43 44 45 46 47 48 49 50

000
ASUS45 KPSR 202300
RWRAZ

PRELIMINARY ARIZONA REGIONAL HOURLY WEATHER ROUNDUP
NATIONAL WEATHER SERVICE PHOENIX AZ
400 PM MST SUN APR 20 2014

NOTE: FAIR INDICATES FEW OR NO CLOUDS BELOW 12,000 FEET WITH NO
SIGNIFICANT WEATHER AND/OR OBSTRUCTIONS TO VISIBILITY.

AZZ001>003-036-210000-
NORTHWEST ARIZONA

CITY           SKY/WX    TMP DP  RH WIND       PRES   REMARKS
KINGMAN        SUNNY     84  32  15 W13       30.05S
$$

AZZ004>008-015-016-018-210000-
NORTH CENTRAL ARIZONA

CITY           SKY/WX    TMP DP  RH WIND       PRES   REMARKS
GRAND CANYON   SUNNY     69  29  22 VRB6      30.19F
WILLIAMS       MOSUNNY   66  23  19 W7        30.26S
PRESCOTT       PTSUNNY   74  28  18 S9        30.12F
FLAGSTAFF      PTSUNNY   62  36  37 S12       30.23R
PAYSON         MOSUNNY   73  34  23 CALM      30.16F
PAGE           PTSUNNY   77  32  19 N7        30.05F
$$

AZZ009>014-017-210000-
NORTHEAST ARIZONA

CITY           SKY/WX    TMP DP  RH WIND       PRES   REMARKS
WINSLOW        NOT AVBL
SAINT JOHNS    SUNNY     72  26  18 MISG      30.12F
WINDOW ROCK    CLOUDY    72  23  16 W8G17     30.15S
SHOW LOW       MOSUNNY   66  27  22 NW5       30.20S
$$

AZZ023-210000-
GREATER PHOENIX AREA

CITY           SKY/WX    TMP DP  RH WIND       PRES   REMARKS
PHOENIX        MOSUNNY   89  33  13 NW6       29.92F
GLENDALE       MOSUNNY   90  36  14 S8G18     29.94F
LUKE AFB       NOT AVBL
DEER VALLEY    SUNNY     86  34  15 VRB3      29.94F
SCOTTSDALE     SUNNY     87  35  15 VRB5G16   29.96F
MESA-FALCON    MOSUNNY   88  36  15 SW8       29.95F
MESA-GATEWAY   SUNNY     88  34  14 SW6       29.97F
CHANDLER       MOSUNNY   88  36  15 S7        29.95F
$$

AZZ027-028-210000-
SOUTHWEST MARICOPA COUNTY AND PINAL COUNTY

CITY           SKY/WX    TMP DP  RH WIND       PRES   REMARKS
CASA GRANDE    SUNNY     88  21   8 SW9       29.97S
$$

AZZ503-504-507>509-210000-
SOUTHEAST ARIZONA

CITY           SKY/WX    TMP DP  RH WIND       PRES   REMARKS
TUCSON         SUNNY     85  33  15 S5        30.02F
DAVIS-MONTHAN  SUNNY     84  37  18 VRB2      30.00F
NOGALES        MOSUNNY   81  33  17 VRB6      30.05F
SIERRA VISTA   CLOUDY    77  31  18 MISG      30.10F
SAFFORD        MOSUNNY   84  32  15 MISG      30.00F
$$

AZZ020-021-025-026-031-210000-
SOUTHWEST ARIZONA

CITY           SKY/WX    TMP DP  RH WIND       PRES   REMARKS
YUMA           NOT AVBL
$$

CAZ031-033-041-043-047-048-061-210000-
SOUTHERN CALIFORNIA

CITY           SKY/WX    TMP DP  RH WIND       PRES   REMARKS
DOWNTOWN L.A.  SUNNY     71  54  54 VRB6      30.01S
L.A. AIRPORT   MOSUNNY   67  55  65 W14       30.03F
SAN DIEGO      MOSUNNY   68  55  63 W8        30.04F
BURBANK        SUNNY     79  51  37 S9        30.00S
ONTARIO        SUNNY     83  50  31 SW13      29.99F
RIVERSIDE      SUNNY     83  52  34 W12G20    29.98F
PALM SPRINGS   MOSUNNY   92  43  18 E12       29.92F
EL CENTRO NAS  SUNNY     92  41  17 VRB5      29.88F
IMPERIAL       SUNNY     93  44  18 VRB6      29.88F
BLYTHE         SUNNY     94  39  14 SW8       29.90F
$$

NVZ020-UTZ003-210000-
SOUTHERN NEVADA-UTAH

CITY           SKY/WX    TMP DP  RH WIND       PRES   REMARKS
LAS VEGAS      NOT AVBL
SALT LAKE CITY PTSUNNY   69  23  17 NW9       30.13S
$$

NMZ009-TXZ055-210000-
NEW MEXICO-WEST TEXAS

CITY           SKY/WX    TMP DP  RH WIND       PRES   REMARKS
ALBUQUERQUE    PTSUNNY   74  28  18 NW20      30.04F
EL PASO        MOSUNNY   78  35  21 SW12G23   30.04F
$$


........................KEY........................
SKY/WX - SKY CONDITION/WEATHER
TMP    - TEMPERATURE IN FAHRENHEIT
DP     - DEW POINT IN FAHRENHEIT
RH     - RELATIVE HUMIDITY IN PERCENT
WIND   - DIRECTION AND SPEED IN MILES PER HOUR (MPH)
VRB    - VARIABLE WIND DIRECTION
PRES   - MEAN SEA LEVEL PRESSURE IN INCHES OF MERCURY
         F - FALLING PRESSURE   R - RISING PRESSURE
         S - STEADY PRESSURE
VSB    - VISIBILITY IN MILES
HX     - HEAT INDEX IN FAHRENHEIT
WCI    - WIND CHILL INDEX IN FAHRENHEIT
TC     - TEMPERATURE IN CELSIUS WHICH IS ALSO KNOWN AS
         TEMPERATURE IN CENTIGRADE
AFB    - AIR FORCE BASE
         LUKE AFB IS LUKE AIR FORCE BASE
         DAVIS-MONTHAN IS DAVIS-MONTHAN AIR FORCE BASE
NAS    - NAVAL AIR STATION
         EL CENTRO NAS IS EL CENTRO NAVAL AIR STATION
N/A    - NOT AVAILABLE



USA.gov is the U.S. government's official web portal to all federal, state and local government web resources and services.